{"data":{"norad_id":69267,"epoch":"2026-09-19T22:00:11.242656Z","epoch_age_seconds":81215,"freshness":"FRESH","line1":"1 69267U 26118A   26262.91679679  .00000387  00000+0  79811-4 0  9997","line2":"2 69267  51.8996 341.7450 0000238 216.0620 144.0326 14.79928365 18186","mean_motion":14.79928365,"eccentricity":2.38e-5,"inclination_deg":51.8996,"raan_deg":341.745,"arg_perigee_deg":216.062,"mean_anomaly_deg":144.0326,"bstar":7.9811e-5,"rev_number":1818,"period_min":97.302006911666,"perigee_km":629.38347780282,"apogee_km":629.71704371643,"semimajor_km":7007.6872607596,"source":"CELESTRAK","updated_at":"2026-09-20T09:00:24.775358Z"}}